Home > Time Zones > World Clock > Weather > India > Thane > Past weeks

Flag Weather past 2 weeks in Thane, Maharashtra, India

Now
84 °F

Clear.


Feels Like: 87 °F
Forecast: 72 / 98 °F
Wind: 3 mph from South

Location: Bombay / Santacruz

Current Time: Nov 1, 2014 at 12:15:20 AM

Latest Report: Oct 31, 2014 at 11:10 PM


Visibility: 2 mi

Pressure: 29.89 "Hg

Humidity: 55%

Dew point: 66 °F

Location of ThaneLocation

Historic Weather in Thane — Graph

°F

Thane temperature yesterday

Maximum temperature yesterday: 95 °F (at 1:40 PM)
Minimum temperature yesterday: 75 °F (at 7:10 AM)
Average temperature yesterday: 84 °F

Past Weeks' High & Low Weather Summary

 TemperatureHumidityPressure
High99 °F (Oct 17, 12:40 PM)84% (Oct 17, 6:40 AM)29.98 "Hg (Oct 17, 6:40 AM)
Low75 °F (Oct 31, 7:10 AM)26% (Oct 30, 12:10 PM)29.74 "Hg (Oct 19, 3:40 PM)
Average86 °F59%29.86 "Hg
* Reported Oct 16 10:40 PM — Oct 31 11:10 PM, Thane, Weather by CustomWeather, © 2014

Note: Actual official high and low records may vary slightly from our data, if they occured in-between our weather recording intervals... More about our weather records

Advertising

Thane weather history for previous 24 hours

 ConditionsComfort  
Time TempWeatherWind HumidityBarometerVisibility
11:10 PM
Oct 31
84 °FClear.3 mph55%29.89 "Hg2 mi
10:40 PM84 °FHaze.3 mph58%29.89 "Hg2 mi
10:10 PM84 °FHaze.3 mph62%29.89 "Hg2 mi
9:40 PM84 °FHaze.5 mph62%29.89 "Hg2 mi
9:10 PM84 °FHaze.6 mph62%29.89 "Hg2 mi
8:40 PM86 °FHaze.5 mph59%29.89 "Hg2 mi
8:10 PM86 °FClear.7 mph59%29.89 "Hg2 mi
7:40 PM86 °FClear.7 mph55%29.86 "Hg2 mi
6:40 PM88 °FClear.6 mph52%29.83 "Hg2 mi
6:10 PM88 °FClear.7 mph49%29.80 "Hg2 mi
5:40 PM88 °FClear.8 mph46%29.80 "Hg2 mi
4:40 PM90 °FClear.8 mph38%29.80 "Hg2 mi
4:10 PM91 °FClear.8 mph34%29.80 "Hg2 mi
3:40 PM91 °FClear.9 mph30%29.80 "Hg2 mi
3:10 PM91 °FClear.12 mph36%29.80 "Hg2 mi
2:40 PM93 °FClear.8 mph39%29.80 "Hg2 mi
2:10 PM93 °FClear.6 mph39%29.80 "Hg2 mi
1:40 PM95 °FClear.6 mph28%29.83 "Hg2 mi
1:10 PM93 °FClear.3 mph30%29.86 "Hg2 mi
12:40 PM93 °FClear.6 mph30%29.86 "Hg2 mi
12:10 PM93 °FClear.6 mph30%29.89 "Hg2 mi
11:40 AM91 °FClear.6 mph34%29.89 "Hg2 mi
11:10 AM90 °FClear.8 mph36%29.92 "Hg2 mi
10:40 AM88 °FClear.10 mph40%29.92 "Hg2 mi
9:40 AM84 °FClear.8 mph48%29.92 "Hg2 mi
9:10 AM82 °FClear.7 mph55%29.92 "Hg2 mi
8:40 AM81 °FHaze.8 mph62%29.92 "Hg2 mi
7:40 AM77 °FHaze.3 mph69%29.89 "Hg2 mi
7:10 AM75 °FHaze.3 mph74%29.89 "Hg2 mi
6:40 AM77 °FHaze.8 mph65%29.86 "Hg2 mi
6:10 AM77 °FHaze.9 mph65%29.86 "Hg2 mi
5:40 AM77 °FHaze.6 mph65%29.86 "Hg2 mi
5:10 AM77 °FHaze.6 mph65%29.86 "Hg2 mi
4:40 AM77 °FHaze.8 mph69%29.86 "Hg2 mi
4:10 AM77 °FHaze.5 mph69%29.83 "Hg2 mi
3:40 AM77 °FHaze.2 mph74%29.86 "Hg2 mi
3:10 AM77 °FHaze.3 mph69%29.83 "Hg2 mi
2:40 AM77 °FHaze.3 mph69%29.86 "Hg2 mi
1:40 AM77 °FHaze.5 mph74%29.86 "Hg1 mi
1:10 AM77 °FHaze.No wind74%29.86 "Hg1 mi
12:40 AM79 °FHaze.3 mph70%29.86 "Hg1 mi
12:10 AM81 °FHaze.5 mph70%29.86 "Hg2 mi
Weather by CustomWeather, © 2014

See weather overviewHow to use our weather pages